Weather History for KCID - February, 2013

Change the Weather History Date:

Monday, February 18, 2013

  Actual Average Record
Temperature  
Mean Temperature 31 °F 25 °F  
Max Temperature 49 °F 34 °F 65 °F (1981)
Min Temperature 13 °F 17 °F -18 °F (1936)
Degree Days  
Heating Degree Days 34 40  
Month to date heating degree days 701 761  
Since 1 July heating degree days 4696 4909  
Cooling Degree Days 0 0  
Month to date cooling degree days 0 0  
Year to date cooling degree days 0 0  
Moisture  
Dew Point 27 °F    
Average Humidity 71    
Maximum Humidity 82    
Minimum Humidity 60    
Precipitation  
Precipitation 0.03 in 0.05 in - ()
Month to date precipitation 0.88 0.72  
Year to date precipitation 1.82 1.64  
Sea Level Pressure  
Sea Level Pressure 29.64 in    
Wind  
Wind Speed 19 mph (West)    
Max Wind Speed 36 mph    
Max Gust Speed 46 mph    
Visibility 8 miles    
Events Rain , Snow    
T = Trace of Precipitation, MM = Missing Value Source: NWS Daily Summary

Daily Weather History Graph

Daily Weather History Graph

Search for Another Location

Airport or City:

Trip Planner

Search our weather history database for the weather conditions in past years. The results will help you decide how hot, cold, wet, or windy it might be!

Date:

Astronomy

Feb. 18, 2013 Rise Set
Actual Time 6:57 AM CST 5:44 PM CST
Civil Twilight 6:29 AM CST 6:12 PM CST
Nautical Twilight 5:57 AM CST 6:45 PM CST
Astronomical Twilight 5:24 AM CST 7:17 PM CST
Moon 11:27 AM CST (2/18) 1:40 AM CST (2/18)
Length of Visible Light 11h 42m
Length of Day
10h 46m
First Quarter, 58% of the Moon is Illuminated
Feb 18
First Quarter
Feb 25
Full
Mar 4
Last Quarter
Mar 11
New
Mar 19
First Quarter

Hourly Weather History & Observations

Time (CST) Temp. Windchill Dew Point Humidity Pressure Visibility Wind Dir Wind Speed Gust Speed Precip Events Conditions
12:52 AM 32.0 °F 21.2 °F 25.0 °F 75% 29.74 in 10.0 mi SSE 16.1 mph 21.9 mph N/A   Clear
1:52 AM 32.0 °F 22.5 °F 26.1 °F 79% 29.71 in 10.0 mi SSE 12.7 mph - N/A   Clear
2:52 AM 33.1 °F 23.9 °F 27.0 °F 78% 29.68 in 10.0 mi SSE 12.7 mph 21.9 mph N/A   Clear
3:52 AM 33.1 °F 23.9 °F 28.0 °F 82% 29.65 in 10.0 mi SSE 12.7 mph - N/A   Clear
4:52 AM 33.1 °F 24.9 °F 28.9 °F 85% 29.63 in 10.0 mi SSE 10.4 mph - N/A   Clear
5:52 AM 33.1 °F 23.9 °F 28.9 °F 85% 29.62 in 10.0 mi SSE 12.7 mph - N/A   Clear
6:52 AM 33.1 °F 25.5 °F 28.9 °F 85% 29.60 in 10.0 mi SSE 9.2 mph - N/A   Clear
7:52 AM 35.1 °F 27.9 °F 30.9 °F 85% 29.60 in 10.0 mi SSE 9.2 mph - N/A   Clear
8:52 AM 37.9 °F 30.5 °F 32.0 °F 79% 29.58 in 10.0 mi South 11.5 mph 20.7 mph N/A   Clear
9:52 AM 42.1 °F 35.2 °F 33.1 °F 70% 29.58 in 10.0 mi SSW 12.7 mph - N/A   Clear
10:52 AM 46.0 °F 39.9 °F 34.0 °F 63% 29.56 in 10.0 mi SW 13.8 mph - N/A   Clear
11:52 AM 46.9 °F - 34.0 °F 61% 29.55 in 10.0 mi WSW 12.7 mph - N/A   Scattered Clouds
12:52 PM 45.0 °F 39.3 °F 34.0 °F 65% 29.55 in 10.0 mi West 11.5 mph - N/A   Overcast
1:52 PM 42.1 °F 33.3 °F 34.0 °F 73% 29.56 in 10.0 mi WNW 19.6 mph - 0.00 in   Overcast
2:37 PM 37.4 °F 26.9 °F 35.6 °F 93% 29.54 in 6.0 mi NW 20.7 mph 28.8 mph 0.00 in Rain Light Rain
2:52 PM 37.0 °F 26.4 °F 34.0 °F 89% 29.57 in 5.0 mi NW 20.7 mph 28.8 mph 0.00 in Rain Light Rain
3:32 PM 33.8 °F 21.6 °F 33.8 °F 100% 29.57 in 2.5 mi NW 23.0 mph 31.1 mph 0.02 in Snow Light Snow
3:37 PM 33.8 °F 22.5 °F 33.8 °F 100% 29.57 in 1.8 mi NW 19.6 mph 28.8 mph 0.02 in Snow Light Snow
3:52 PM 33.1 °F 20.6 °F 30.9 °F 92% 29.60 in 1.5 mi NW 23.0 mph 29.9 mph 0.02 in Snow Light Snow
3:54 PM 33.8 °F 21.0 °F 30.2 °F 87% 29.57 in 1.5 mi NW 25.3 mph 31.1 mph 0.00 in Snow Light Snow
3:57 PM 33.8 °F 21.9 °F 30.2 °F 87% 29.57 in 3.0 mi NW 21.9 mph 31.1 mph 0.00 in Snow Light Snow
4:52 PM 30.0 °F 16.3 °F 27.0 °F 88% 29.63 in 10.0 mi NW 24.2 mph 33.4 mph 0.01 in   Overcast
5:09 PM 28.4 °F 13.8 °F 26.6 °F 93% 29.61 in 10.0 mi NW 25.3 mph 33.4 mph N/A   Overcast
5:40 PM 28.4 °F 12.7 °F 24.8 °F 86% 29.62 in 2.5 mi NW 29.9 mph 36.8 mph N/A Snow Light Snow
5:48 PM 28.4 °F 13.3 °F 24.8 °F 86% 29.63 in 6.0 mi NW 27.6 mph 35.7 mph 0.00 in Snow Light Snow
5:52 PM 27.0 °F 11.3 °F 23.0 °F 85% 29.66 in 8.0 mi NW 27.6 mph 34.5 mph 0.00 in Snow Light Snow
6:52 PM 25.0 °F 7.8 °F 19.9 °F 81% 29.70 in 10.0 mi NW 31.1 mph 38.0 mph N/A   Overcast
7:52 PM 21.9 °F 4.2 °F 16.0 °F 78% 29.73 in 10.0 mi NW 28.8 mph 36.8 mph N/A   Overcast
8:52 PM 19.0 °F -0.3 °F 12.0 °F 74% 29.76 in 10.0 mi WNW 31.1 mph 40.3 mph N/A   Overcast
9:52 PM 16.0 °F -3.5 °F 9.0 °F 74% 29.80 in 10.0 mi NW 27.6 mph 34.5 mph 0.00 in   Mostly Cloudy
10:52 PM 16.0 °F -3.8 °F 8.1 °F 71% 29.80 in 10.0 mi NW 28.8 mph 39.1 mph 0.00 in   Overcast
11:52 PM 12.9 °F -6.9 °F 6.1 °F 74% 29.83 in 10.0 mi WNW 25.3 mph 38.0 mph 0.00 in   Mostly Cloudy